星链-32018 (STARLINK-32018 )

导读 | 豆包AI

STARLINK-32018是美国SpaceX公司星链计划中的一颗卫星,于北京时间2024年6月23日发射升空,属于Starlink Gen2(星链第二代)卫星,主要为全球范围内用户提供低延迟、高速率的宽带互联网服务,星链系统依托大量低轨卫星组网,持续完善全球卫星互联网覆盖布局。

Basic Information
目录编号:
60105
目录名称:
STARLINK-32018
国际标识:
2024-117Q
轨道中心:
EARTH
卫星名称:
星链-32018
卫星全名:
星链-32018 (STARLINK-32018 )
卫星状态:
在轨 (已飞行677 天)
发射日期:
2024-06-23 UTC
国别 :
美国 (US)
星等 :
--
Orbit Information
数据来源 国际轨道数据 AOE轨道数据
星历时间 2026-04-30T17:44:13+0800
18小时前
查看轨道信息
2026-05-01T01:00:00+0800
11小时前
查看轨道信息
半长轴 6853.374km 6853.361km
偏心率 0.000103 0.0001225
轨道倾角 53.159° 53.158°
近地点辐角 88.891° 81.375°
升交点赤经 156.960° 155.556°
平近点角 271.221° 146.781°
近地点 474.531km 474.384km
远地点 475.943km 476.064km
周期 94.106分钟 94.106分钟
每日圈数 15.301928 15.301972
Detailed Information
固有亮度:
5
最大亮度:
1.5
卫星平台:
Starlink v2.0 mini
覆盖范围:
全球
运营商:
太空探索技术公司
运营商所在国:
美国
制造商(研发单位):
太空探索技术公司
制造商所在国:
美国
使用方式:
暂无
Satellite Introduction
星链(Starlink)计划是由太空探索技术公司(SpaceX)提出的一个巨型低轨卫星互联网星座项目,计划在2019年至2024年间在太空搭建由约1.2万颗卫星组成的“星链”网络,其中1584颗将部署在地球上空550千米处的近地轨道,并从2020年开始工作。该卫星仍在工作。
2D Orbit Map
3D Orbit Map
Orbit Altitude Analysis Chart
Orbit Inclination Analysis Chart
Orbit Comprehensive Analysis Chart
View Comprehensive Chart